TimeEDT,TemperatureF,Dew PointF,Humidity,Sea Level PressureIn,VisibilityMPH,Wind Direction,Wind SpeedMPH,Gust SpeedMPH,PrecipitationIn,Events,Conditions,WindDirDegrees,DateUTC
12:15 AM,59.4,59.4,100,29.97,10.0,Calm,Calm,-,N/A,,Overcast,0,2013-05-09 04:15:00
12:35 AM,59.5,59.5,100,29.97,7.0,Calm,Calm,-,N/A,,Overcast,0,2013-05-09 04:35:00
2:15 AM,59.0,59.0,100,29.96,10.0,WNW,4.6,-,N/A,,Overcast,290,2013-05-09 06:15:00
3:35 AM,56.8,56.8,100,29.96,2.0,Calm,Calm,-,N/A,,Overcast,0,2013-05-09 07:35:00
4:15 AM,56.3,56.3,100,29.96,1.2,West,3.5,-,N/A,,Overcast,270,2013-05-09 08:15:00
4:35 AM,56.3,56.3,100,29.96,1.2,West,3.5,-,N/A,,Overcast,260,2013-05-09 08:35:00
5:35 AM,55.9,55.9,100,29.97,4.0,West,4.6,-,N/A,,Overcast,280,2013-05-09 09:35:00
5:55 AM,55.9,55.9,100,29.98,4.0,SW,3.5,-,N/A,,Overcast,230,2013-05-09 09:55:00
7:55 AM,56.1,56.1,100,30.00,10.0,SW,3.5,-,N/A,,Overcast,220,2013-05-09 11:55:00
8:35 AM,57.0,57.0,100,30.02,10.0,West,3.5,-,N/A,,Overcast,260,2013-05-09 12:35:00
10:15 AM,62.1,59.9,93,30.03,10.0,SSW,3.5,-,N/A,,Mostly Cloudy,210,2013-05-09 14:15:00
10:35 AM,63.5,60.6,90,30.03,10.0,SSW,4.6,-,N/A,,Scattered Clouds,210,2013-05-09 14:35:00
10:55 AM,65.3,60.6,85,30.03,10.0,South,3.5,-,N/A,,Clear,180,2013-05-09 14:55:00
11:35 AM,67.6,61.0,79,30.03,10.0,SW,6.9,-,N/A,,Clear,230,2013-05-09 15:35:00
11:55 AM,69.8,60.1,71,30.03,10.0,WNW,8.1,-,N/A,,Clear,290,2013-05-09 15:55:00
12:15 PM,71.6,61.0,69,30.02,10.0,West,6.9,-,N/A,,Clear,270,2013-05-09 16:15:00
12:35 PM,70.9,59.7,68,30.01,10.0,West,4.6,-,N/A,,Clear,280,2013-05-09 16:35:00
12:55 PM,72.3,60.1,65,30.01,10.0,Calm,Calm,-,N/A,,Clear,0,2013-05-09 16:55:00
1:15 PM,72.1,60.1,66,30.01,10.0,WSW,9.2,-,N/A,,Mostly Cloudy,250,2013-05-09 17:15:00
1:55 PM,73.8,60.4,63,30.01,10.0,SSW,8.1,-,N/A,,Scattered Clouds,210,2013-05-09 17:55:00
2:15 PM,75.9,59.2,56,30.00,10.0,SW,15.0,-,N/A,,Mostly Cloudy,230,2013-05-09 18:15:00
2:35 PM,76.1,59.0,55,30.00,10.0,WSW,11.5,-,N/A,,Scattered Clouds,240,2013-05-09 18:35:00
2:55 PM,75.6,59.2,57,29.99,10.0,WSW,11.5,-,N/A,,Mostly Cloudy,240,2013-05-09 18:55:00
3:15 PM,73.8,59.0,60,29.99,10.0,West,8.1,-,N/A,,Mostly Cloudy,280,2013-05-09 19:15:00
3:35 PM,76.1,59.0,55,29.99,10.0,West,9.2,-,N/A,,Scattered Clouds,260,2013-05-09 19:35:00
4:15 PM,77.0,58.1,52,29.98,10.0,West,8.1,-,N/A,,Scattered Clouds,280,2013-05-09 20:15:00
4:35 PM,77.2,57.9,51,29.98,10.0,West,10.4,-,N/A,,Scattered Clouds,260,2013-05-09 20:35:00
4:55 PM,77.4,57.7,51,29.99,10.0,WSW,8.1,-,N/A,,Clear,250,2013-05-09 20:55:00
5:15 PM,77.5,57.4,50,29.99,10.0,West,10.4,-,N/A,,Clear,270,2013-05-09 21:15:00
5:35 PM,77.4,57.6,50,29.98,10.0,West,6.9,-,N/A,,Scattered Clouds,260,2013-05-09 21:35:00
5:55 PM,77.2,57.2,50,29.98,10.0,West,6.9,-,N/A,,Scattered Clouds,260,2013-05-09 21:55:00
6:15 PM,76.6,56.7,50,29.99,10.0,West,5.8,-,N/A,,Clear,270,2013-05-09 22:15:00
6:35 PM,76.5,57.7,52,29.99,10.0,West,5.8,-,N/A,,Clear,260,2013-05-09 22:35:00
6:55 PM,76.1,58.1,54,29.99,10.0,SW,3.5,-,N/A,,Clear,220,2013-05-09 22:55:00
7:15 PM,75.4,58.5,56,29.99,10.0,Calm,Calm,-,N/A,,Clear,0,2013-05-09 23:15:00
7:35 PM,72.0,61.5,70,29.99,10.0,Calm,Calm,-,N/A,,Clear,0,2013-05-09 23:35:00
7:55 PM,70.3,61.2,73,29.99,10.0,Calm,Calm,-,N/A,,Clear,0,2013-05-09 23:55:00
8:15 PM,67.3,61.3,81,30.01,10.0,Calm,Calm,-,N/A,,Clear,0,2013-05-10 00:15:00
8:35 PM,65.3,62.4,90,30.02,10.0,Calm,Calm,-,N/A,,Clear,0,2013-05-10 00:35:00
8:55 PM,63.5,61.3,93,30.02,10.0,Calm,Calm,-,N/A,,Clear,0,2013-05-10 00:55:00
9:15 PM,62.6,61.3,96,30.03,10.0,Calm,Calm,-,N/A,,Clear,0,2013-05-10 01:15:00
9:35 PM,62.4,61.3,96,30.03,10.0,Calm,Calm,-,N/A,,Clear,0,2013-05-10 01:35:00
9:55 PM,61.9,61.0,97,30.04,10.0,Calm,Calm,-,N/A,,Clear,0,2013-05-10 01:55:00
10:15 PM,63.9,61.3,91,30.04,10.0,Calm,Calm,-,N/A,,Clear,0,2013-05-10 02:15:00
10:35 PM,63.9,60.3,88,30.04,10.0,Calm,Calm,-,N/A,,Clear,0,2013-05-10 02:35:00
10:55 PM,60.8,59.9,97,30.04,10.0,Calm,Calm,-,N/A,,Clear,0,2013-05-10 02:55:00
11:15 PM,60.8,60.3,98,30.04,10.0,Calm,Calm,-,N/A,,Clear,0,2013-05-10 03:15:00
11:55 PM,60.4,59.2,96,30.04,10.0,Calm,Calm,-,N/A,,Clear,0,2013-05-10 03:55:00